TimeMST,TemperatureF,Dew PointF,Humidity,Sea Level PressureIn,VisibilityMPH,Wind Direction,Wind SpeedMPH,Gust SpeedMPH,PrecipitationIn,Events,Conditions,WindDirDegrees,DateUTC
12:54 AM,1.9,-2.0,83,29.94,8.0,Calm,Calm,-,0.00,,Scattered Clouds,0,2013-12-08 07:54:00
1:54 AM,1.0,-4.0,79,29.93,7.0,Calm,Calm,-,N/A,,Partly Cloudy,0,2013-12-08 08:54:00
2:13 AM,1.9,-2.9,80,29.60,7.0,Calm,Calm,-,N/A,,Mostly Cloudy,0,2013-12-08 09:13:00
2:54 AM,1.9,-2.9,80,29.91,5.0,Calm,Calm,-,0.00,Snow,Light Snow,0,2013-12-08 09:54:00
3:54 AM,5.0,1.9,87,29.88,4.0,West,3.5,-,0.00,Snow,Light Snow,280,2013-12-08 10:54:00
4:54 AM,3.9,-0.0,84,29.87,5.0,SSW,3.5,-,0.00,Snow,Light Snow,210,2013-12-08 11:54:00
5:01 AM,5.0,1.0,84,29.57,5.0,SSW,5.8,-,0.00,Snow,Light Snow,210,2013-12-08 12:01:00
5:26 AM,3.9,1.0,88,29.58,4.0,South,6.9,-,0.00,Snow,Light Snow,180,2013-12-08 12:26:00
5:54 AM,3.9,1.0,88,29.91,2.0,SE,4.6,-,0.00,Snow,Light Snow,140,2013-12-08 12:54:00
6:54 AM,3.9,1.0,88,29.92,2.0,East,4.6,-,0.00,Snow,Light Snow,100,2013-12-08 13:54:00
7:14 AM,3.9,1.0,88,29.60,1.2,SSE,9.2,-,0.00,Snow,Light Snow,150,2013-12-08 14:14:00
7:32 AM,3.9,1.0,88,29.60,0.8,SSE,9.2,-,0.00,Snow,Light Snow,150,2013-12-08 14:32:00
7:54 AM,3.9,1.0,88,29.94,0.8,SSE,5.8,-,0.00,Snow,Light Snow,160,2013-12-08 14:54:00
8:17 AM,3.9,-0.0,84,29.61,1.0,SSE,8.1,-,0.00,Snow,Light Snow,150,2013-12-08 15:17:00
8:54 AM,6.1,1.9,83,29.96,1.0,Calm,Calm,-,0.00,Snow,Light Snow,0,2013-12-08 15:54:00
9:29 AM,7.0,1.9,80,29.66,4.0,North,6.9,-,0.00,Snow,Light Snow,360,2013-12-08 16:29:00
9:38 AM,6.1,1.9,83,29.66,6.0,East,3.5,-,0.00,,Mostly Cloudy,90,2013-12-08 16:38:00
9:54 AM,6.1,1.9,83,29.97,6.0,Calm,Calm,-,0.00,,Mostly Cloudy,0,2013-12-08 16:54:00
10:22 AM,8.1,3.9,83,29.68,1.5,WSW,3.5,-,N/A,,Mostly Cloudy,240,2013-12-08 17:22:00
10:25 AM,8.1,3.9,83,29.68,6.0,Calm,Calm,-,N/A,,Mostly Cloudy,0,2013-12-08 17:25:00
10:54 AM,10.9,6.1,81,29.96,8.0,West,4.6,-,N/A,,Mostly Cloudy,270,2013-12-08 17:54:00
11:54 AM,15.1,9.0,77,29.95,10.0,West,4.6,-,N/A,,Mostly Cloudy,270,2013-12-08 18:54:00
12:54 PM,21.9,10.9,63,29.94,10.0,WSW,3.5,-,N/A,,Mostly Cloudy,250,2013-12-08 19:54:00
1:54 PM,23.0,12.0,63,29.96,10.0,SSE,6.9,-,N/A,,Scattered Clouds,160,2013-12-08 20:54:00
2:54 PM,19.0,10.0,68,30.01,10.0,SE,16.1,-,N/A,,Scattered Clouds,140,2013-12-08 21:54:00
3:54 PM,19.0,10.9,71,30.02,7.0,South,8.1,-,N/A,,Scattered Clouds,170,2013-12-08 22:54:00
4:54 PM,12.9,8.1,81,30.08,7.0,SSW,9.2,-,N/A,,Scattered Clouds,210,2013-12-08 23:54:00
5:54 PM,12.0,7.0,80,30.11,6.0,SE,4.6,-,N/A,,Mostly Cloudy,130,2013-12-09 00:54:00
6:43 PM,15.1,9.0,77,29.86,7.0,South,12.7,-,0.00,Snow,Light Snow,170,2013-12-09 01:43:00
6:54 PM,14.0,9.0,80,30.15,6.0,SSE,10.4,-,0.00,Snow,Light Snow,160,2013-12-09 01:54:00
7:54 PM,14.0,9.0,80,30.18,6.0,South,8.1,-,0.00,Snow,Light Snow,170,2013-12-09 02:54:00
8:54 PM,10.9,6.1,81,30.19,4.0,South,10.4,-,0.00,Snow,Light Snow,190,2013-12-09 03:54:00
9:16 PM,8.1,3.0,80,29.91,5.0,South,10.4,-,0.00,Snow,Light Snow,180,2013-12-09 04:16:00
9:54 PM,9.0,1.9,73,30.22,6.0,Variable,5.8,-,0.00,Snow,Light Snow,0,2013-12-09 04:54:00
10:54 PM,7.0,1.0,77,30.23,6.0,ENE,10.4,-,0.00,Snow,Light Snow,70,2013-12-09 05:54:00
11:54 PM,6.1,1.9,83,30.22,3.0,Variable,3.5,-,0.00,Snow,Light Snow,0,2013-12-09 06:54:00